STARLINK-1466 (45732 NORAD) Tracking and Keplerian Element Data

This shows tracking and keplerian element data for the satellite.

Feedback or suggestion? Click here.




ElementValue
Catalog45732
NameSTARLINK-1466
Epoch Orbit175
Epoch Day215.91667824
Epoch Year2020
RAAN55.9084
Inclination53.0064
Eccentricity0.0001546
Argument of Perigee71.4932
Mean Anonmoly186.8883
Mean Motion15.05574065
Decay Rate0.0001466
L11 45732U 20038C 20215.91667824 .00014660 00000-0 10234-2 0 9996
L22 45732 53.0064 55.9084 0001546 71.4932 186.8883 15.05574065 1757

Live tracking and technical data element details for STARLINK-1466 (NORAD 45732). STARLINK-1466 can be tracked NOW for your location showing map with azimuth and elevation plus other details from your city location.

Track the satellite on the map from your city or location and see movement details for azimuth, elevation, latitude, longitude, range, height, and movement on the map or in text.







IsCatalogInMostPopularTable: catalog: 45732, numindb: 8
Update: records affected: 1



GetName: 45732 STARLINK-1466

Hit Count: updated at: Mon, 03 Aug 2020 18:12:36 GMT